THOR ABLESTAR DEB, 672

Orbit data source: Space-Track

THOR ABLESTAR DEB, 672 is space debris in LEO originally from a launch on Sat, 28 Sep 1963 UTC launched from the Air Force Western Test Range (AFWTR). Debris objects in space refer to the collection of defunct objects orbiting the Earth. Examples of debris include non-operational satellites, rocket bodies, and fragments generated from explosions, collisions, or faulty payload assembly.

Loading next visibility...
Identifier
672, 1963-038D
Orbit
LEO
Country
Flag of USUS
Related business
Manufacturer
Unknown
Mission
Spacecraft
Bus & Motor
Unknown
Mass
Unknown
Launch date (UTC)
1963-09-28 (63 years ago)
Launch vehicle
Unknown
Launch site
Air Force Western Test Range (AFWTR)
Object type
Payload
Rocket body
Debris
Shape & HBR
Unknown shape, 0.1 m
Radar Cross Section
Small (<0.1 m²)

Expand to show TLE details & history
Last TLE update: 1 day ago

TLE from 1 day ago
0 THOR ABLESTAR DEB
1   672U 63038D   26119.61844014  .00001315  00000-0  15110-2 0  9992
2   672  89.9874 336.0526 0022932 215.6435 200.5676 13.68916277 95203
Epoch: 2026-04-29T14:50Z
TLE epoch observation values (Epoch: 2026-04-29T14:50:33.228Z)
Latitude
56.21296°
Longitude
-104.14393°
Altitude
1,028.783 km
Speed
7.335 km/s
True Right ascension
22h 24m 17s
True Declination
56° 03' 35"
Sunlit
Object was in daylight at epoch
Visualization orbit readout
Latitude
Unknown
Longitude
Unknown
Altitude
Unknown
Speed
Unknown
Apparent Right ascension
Unknown
Apparent Declination
Unknown
Sunlit
N/A
Visualization observer readout
Local Sidereal Time
21:55:19
Azimuth
Unknown
Elevation
Unknown
Doppler factor
Unknown
Orbital elements
Apogee altitude
1,017.407 km
Perigee altitude
983.566 km
Semi-major axis
7,378.623 km
Eccentricity
0.00229
Inclination
89.9874°
RAAN
336.0526°
Arg. of periapsis
215.6435°
True anomaly
200.47553°
Mean anomaly
200.5676°
Eccentric anomaly
200.52154°
Mean motion
3.42437 °/min
Orbital period
105.13 mins
BSTAR
0.001511
Loading maneuver chart data...
Computing Atmospheric mass density...

Documentation

Showing up to 5 results
|